Henrikh Movsisyan

首席球探 - BKMA
24 九月 2028
星期日
處理

性格

適應力 (14) 野心 (7) 爭議性 (3) 忠誠度 (18) 抗壓 (2) 職業素養 (11) 體育精神 (1) 性情 (12)

個人檔案

執教風格 民主型
教練證照 洲際B級
決心 7
人員管理 3
激勵 8
紀律 7
工作滿意度
94%
疲勞度
0%
職務 首席球探
薪資 10.3K 每週
合約 14.03.2030

性能

行為 良好
訓練效果
24%
球員發展
35%
傷病預防
35%
戰術執行
20%

近期事件

参加了招募会议 刚刚
参加了招募会议 刚刚
推荐了转会目标 刚刚
参加了招募会议 7天前
参加了招募会议 7天前
推荐了转会目标 7天前
推荐了转会目标 7天前
推荐了转会目标 7天前

正在监控

78
球員 俱樂部 狀態 能力 信心 已观察 最后观察 最新投票
Alexandre Llovet Urartu 活跃 89 / 85 58% 1 31.07.2028 赞成
Aram Bayramyan Pyunik 活跃 76 / 91 58% 1 12.06.2028 赞成
Edgar Karapetyan Pyunik 活跃 81 / 93 58% 1 01.06.2028 赞成
Luis Olivera Defensores Unidos 活跃 124 / 96 40% 2 30.12.2027 -
Lautaro Núñez Alvarado 活跃 107 / 95 40% 1 30.12.2027 -
Hosea Michael Remo Stars 活跃 86 / 106 40% 2 28.12.2027 -
Franco Malagueño Colegiales 活跃 93 / 101 40% 1 28.12.2027 -
Walter Juárez Güemes 活跃 96 / 104 40% 3 27.12.2027 -
Yeferson Rincon Atletico Venezuela 活跃 99 / 105 40% 1 26.12.2027 -
Tomás Rojas Atlanta 活跃 101 / 127 40% 4 25.12.2027 -
Matías Machado Racing 活跃 126 / 119 40% 4 25.12.2027 -
Matías Sánchez Racing 活跃 103 / 117 40% 3 24.12.2027 -
Ismael Cortez Gimnasia y Esgrima 活跃 117 / 129 40% 1 23.12.2027 -
Rodrigo Ramírez Nueva Chicago 活跃 126 / 98 40% 2 19.12.2027 -
Valentín Serrano Arsenal 活跃 115 / 115 40% 2 16.12.2027 -
Agustín Benítez Defensores 活跃 113 / 123 40% 5 15.12.2027 -
Fernando Bersano Madryn 活跃 102 / 119 40% 9 14.12.2027 -
Federico Ulayar Talleres 活跃 93 / 84 40% 3 13.12.2027 -
Martín García Atlanta 活跃 111 / 118 40% 3 11.12.2027 -
Tiago Ferreyra Mitre 活跃 116 / 105 40% 1 11.12.2027 -
Leandro Lucero Temperley 活跃 130 / 106 40% 1 08.12.2027 -
Franco Díaz Temperley 活跃 110 / 137 40% 3 06.12.2027 -
Marcos Enrique Tristán Suárez 活跃 113 / 98 40% 3 24.11.2027 -
Yeferson Rodallega Envigado 活跃 101 / 124 40% 2 24.11.2027 -
Pedro Sanz Central Norte 活跃 121 / 120 40% 2 22.11.2027 -
Misael Tarón Ferro Carril Oeste 活跃 129 / 115 40% 1 21.11.2027 -
Santiago Kubiszyn Morón 活跃 117 / 107 40% 2 20.11.2027 -
Simón Contreras Iquique 活跃 103 / 87 40% 1 20.11.2027 -
Tomás Ferreyra Defensores Unidos 活跃 126 / 127 40% 5 17.11.2027 -
Mauricio Guzmán Tristán Suárez 活跃 105 / 111 40% 1 17.11.2027 -
Maico Quiroz Güemes 活跃 115 / 102 40% 4 15.11.2027 -
Marcio Gómez Racing 活跃 115 / 103 40% 2 05.11.2027 -
Pedro Souto Temperley 活跃 106 / 105 40% 4 29.10.2027 -
Nicolás Fernández Maipú 活跃 119 / 121 40% 3 28.10.2027 -
Braian Aranda Agropecuario Argentino 活跃 110 / 107 40% 2 26.10.2027 -
Brian Nievas Chaco For Ever 活跃 104 / 117 40% 2 21.10.2027 -
Franco Camargo Gimnasia y Esgrima 活跃 113 / 103 40% 2 19.10.2027 -
Tomás Porra Barracas Central 活跃 130 / 115 40% 1 19.10.2027 -
Yvo Calleros Madryn 活跃 118 / 110 40% 2 18.10.2027 -
Matías Bazzi Talleres 活跃 88 / 103 40% 2 16.10.2027 -
Alejo Tabares All Boys 活跃 109 / 105 40% 1 14.10.2027 -
Ian Pérez Defensores 活跃 106 / 92 40% 1 02.10.2027 -
Tomás Castro Ponce Atlanta 活跃 102 / 108 40% 1 25.09.2027 -
Lucas Monzón Alvarado 活跃 127 / 127 40% 1 19.09.2027 -
Gabriel Díaz Patronato 活跃 100 / 121 40% 1 06.09.2027 -
Ruslan Apekov Torpedo Moscow 活跃 113 / 91 40% 2 30.12.2026 -
Víctor Guzmán Sporting CP 活跃 93 / 109 40% 1 28.12.2026 -
Denis Rubanov Dinamo Stavropol 活跃 85 / 74 40% 1 27.12.2026 -
Dmitry Kuptsov Spartak Tambov 活跃 97 / 77 40% 1 27.12.2026 -
Rüstəm Əhmədzadə Sumgayit 活跃 123 / 102 40% 2 24.12.2026 -
Darío Ramírez Real Sociedad 活跃 84 / 101 40% 1 23.12.2026 -
Kamran Aliev SKA Khabarovsk 活跃 119 / 98 40% 1 23.12.2026 -
Akintunde Azeez US Bougouni 活跃 94 / 83 40% 1 23.12.2026 -
Felipe Anderson Palmeiras 活跃 133 / 134 40% 2 21.12.2026 -
Yeangel Montero Naxxar Lions 活跃 104 / 93 40% 2 21.12.2026 -
Darko Todorović Fakel 活跃 105 / 100 40% 1 20.12.2026 -
Paolo Yrizar Chernomorets 活跃 78 / 111 40% 1 18.12.2026 -
Ekain Orobengoa Real Sociedad 活跃 99 / 95 40% 1 18.12.2026 -
Bruno Gomes Valletta 活跃 104 / 98 40% 1 17.12.2026 -
Ramazan Gadjimuradov Chelyabinsk 活跃 111 / 102 40% 1 16.12.2026 -
Mateo Ortale Khazar 活跃 113 / 103 40% 1 15.12.2026 -
Tumiso Mogakwe Birkirkara 活跃 83 / 88 40% 1 15.12.2026 -
Alexandr Yushin Torpedo Moscow 活跃 117 / 118 40% 1 11.12.2026 -
Said Aliev Rotor 活跃 86 / 85 40% 1 09.12.2026 -
Roko Prša Valletta 活跃 96 / 99 40% 1 08.12.2026 -
Alexandr Olenev Nart 活跃 67 / 84 40% 1 07.12.2026 -
Shahriyar Abdullayev Ravan 活跃 112 / 97 40% 1 07.12.2026 -
Gbolahan Salami 活跃 86 / 89 40% 1 02.12.2026 -
Stanislav Biblyk Chaika 活跃 101 / 84 40% 1 25.11.2026 -
Mason Bennett Harrogate Town 活跃 82 / 95 40% 1 25.11.2026 -
Salman Abubakar Mosta 活跃 92 / 77 40% 1 23.11.2026 -
Teddy Teuma Sliema Wanderers 活跃 128 / 132 40% 1 21.11.2026 -
Nikita Simdyankin KDV Tomsk 活跃 89 / 89 40% 1 19.11.2026 -
Dmitry Lesnikov Volgar 活跃 78 / 99 40% 1 17.11.2026 -
Miloš Jovičić Zabbar St. Patrick 活跃 84 / 98 40% 1 17.11.2026 -
Moussa Kanté Ararat 活跃 93 / 104 55% 1 10.08.2026 -
Mauro Van 活跃 78 / 82 55% 1 03.08.2026 观察
Edgar Grigoryan Ararat-Armenia 活跃 108 / 117 40% 1 03.08.2026 -